sat.trackr.live / text

‹ back to catalog

STARLINK-35509

NORAD 66199 · 2025-243Y

PAYLOAD ACTIVE UNKNOWN

§ Identity

Operator
Country
US
Launch date
2025-10-26
Launch site
AFETR
Launch vehicle
Mass (kg)
RCS (m²)

Purposes: comms

External: N2YO · Heavens-Above · Gunter

§ Orbital elements

Epoch: 2026-09-20T21:51:55.596096Z

Period
93.85 min
Inclination
53.1609°
Eccentricity
0.0001203
Mean motion
15.34393924 rev/d
Perigee alt
461.9 km
Apogee alt
463.5 km
Semi-major
6,840.9 km
B*
4.5813e-4
RAAN
57.7134°
Arg perigee
104.0067°
Mean anomaly
256.1069°
Rev number
5,055

§ Raw data

STARLINK-355091 66199U 25243Y   26263.91106014  .00015131  00000+0  45813-3 0  99922 66199  53.1609  57.7134 0001203 104.0067 256.1069 15.34393924 50555

JSON: /api/v1/satellites/66199 · /tle

For live sub-satellite position, see the globe view (requires WebGL).

§ Visibility from observer

Set your observer location to see the next 7 days of passes ≥ 10°. The values pass through the URL so the page stays shareable.

No JS? Fill the form by hand. The geolocation button needs JavaScript.